Moron de la Frontera, Spain

8:21 AM CET on December 12, 2017 (GMT +0100)
Moron Air Base

Weather History for LEMO - October, 2012

Change the Weather History Date:

Saturday, October 27, 2012

  Actual Average Record
Temperature  
Mean Temperature 64 °F -  
Max Temperature 69 °F 66 °F 88 °F (2017)
Min Temperature 59 °F 48 °F 41 °F (2010)
Degree Days  
Heating Degree Days 1    
Growing Degree Days 14 (Base 50)    
Moisture  
Dew Point 60 °F    
Average Humidity 88    
Maximum Humidity 100    
Minimum Humidity 68    
Precipitation  
Precipitation 0.00 in - - ()
Sea Level Pressure  
Sea Level Pressure 29.74 in    
Wind  
Wind Speed 8 mph ()    
Max Wind Speed 10 mph    
Max Gust Speed -    
Visibility 6.2 miles    
Events Rain    
Averages and records for this station are not official NWS values.
T = Trace of Precipitation, MM = Missing Value Source: Averaged Metar Reports

Daily Weather History Graph

Daily Weather History Graph

Search for Another Location

Airport or City:

Trip Planner

Search our weather history database for the weather conditions in past years. The results will help you decide how hot, cold, wet, or windy it might be!

Date:

Astronomy

Oct. 27, 2012 Rise Set
Actual Time 8:42 AM CEST 7:30 PM CEST
Civil Twilight 8:15 AM CEST 7:56 PM CEST
Nautical Twilight 7:44 AM CEST 8:27 PM CEST
Astronomical Twilight 7:14 AM CEST 8:57 PM CEST
Moon 6:07 PM CEST (10/27) 6:25 AM CEST (10/27)
Length of Visible Light 11h 41m
Length of Day
10h 47m
Waxing Gibbous, 95% of the Moon is Illuminated
Oct 27
Waxing Gibbous
Oct 29
Full
Nov 7
Last Quarter
Nov 13
New
Nov 20
First Quarter

Hourly Weather History & Observations

Time (CEST) Temp. Dew Point Humidity Pressure Visibility Wind Dir Wind Speed Gust Speed Precip Events Conditions
12:00 AM 62.6 °F 60.8 °F 94% 29.68 in 6.2 mi SW 9.2 mph - N/A   Scattered Clouds
1:00 AM 62.6 °F 60.8 °F 94% 29.68 in 6.2 mi WSW 9.2 mph - N/A   Scattered Clouds
2:00 AM 62.6 °F 60.8 °F 94% 29.68 in 6.2 mi West 9.2 mph - N/A   Scattered Clouds
3:00 AM 60.8 °F 60.8 °F 100% 29.68 in 6.2 mi West 9.2 mph - N/A   Scattered Clouds
4:00 AM 60.8 °F 60.8 °F 100% 29.68 in 6.2 mi WSW 9.2 mph - N/A   Scattered Clouds
5:00 AM 59.0 °F 59.0 °F 100% 29.68 in 6.2 mi WSW 9.2 mph - N/A   Scattered Clouds
6:00 AM 59.0 °F 59.0 °F 100% 29.68 in 6.2 mi WSW 8.1 mph - N/A   Scattered Clouds
7:00 AM 59.0 °F 59.0 °F 100% 29.71 in 6.2 mi West 9.2 mph - N/A   Scattered Clouds
8:00 AM 59.0 °F 59.0 °F 100% 29.71 in 6.2 mi WSW 8.1 mph - N/A   Scattered Clouds
9:00 AM 59.0 °F 59.0 °F 100% 29.74 in 6.2 mi West 9.2 mph - N/A   Scattered Clouds
10:00 AM 60.8 °F 59.0 °F 94% 29.74 in 6.2 mi West 8.1 mph - N/A   Partly Cloudy
11:00 AM 62.6 °F 59.0 °F 88% 29.77 in 6.2 mi West 9.2 mph - N/A   Partly Cloudy
12:00 PM 66.2 °F 60.8 °F 83% 29.77 in 6.2 mi West 9.2 mph - N/A   Partly Cloudy
1:00 PM 66.2 °F 59.0 °F 78% 29.77 in 6.2 mi West 10.4 mph - N/A   Mostly Cloudy
2:00 PM 68.0 °F 57.2 °F 68% 29.77 in 6.2 mi West 9.2 mph - N/A   Mostly Cloudy
3:00 PM 68.0 °F 59.0 °F 73% 29.74 in 6.2 mi West 9.2 mph - N/A   Scattered Clouds
4:00 PM 69.8 °F 59.0 °F 68% 29.74 in 6.2 mi West 9.2 mph - N/A   Scattered Clouds
5:00 PM 68.0 °F 59.0 °F 73% 29.74 in 6.2 mi West 8.1 mph - N/A Rain Light Rain
6:00 PM 69.8 °F 59.0 °F 68% 29.74 in 6.2 mi West 6.9 mph - N/A   Partly Cloudy
7:00 PM 66.2 °F 60.8 °F 83% 29.77 in 6.2 mi SW 6.9 mph - N/A   Partly Cloudy
8:00 PM 64.4 °F 59.0 °F 83% 29.77 in 6.2 mi SSW 5.8 mph - N/A   Partly Cloudy
9:00 PM 62.6 °F 60.8 °F 94% 29.80 in 6.2 mi WSW 8.1 mph - N/A   Partly Cloudy
10:00 PM 60.8 °F 59.0 °F 94% 29.80 in - SSW 8.1 mph - N/A   Clear
11:00 PM 60.8 °F 59.0 °F 94% 29.80 in 6.2 mi SW 8.1 mph - N/A   Partly Cloudy